Time,TemperatureF,DewpointF,PressureIn,WindDirection,WindDirectionDegrees,WindSpeedMPH,WindSpeedGustMPH,Humidity,HourlyPrecipIn,Conditions,Clouds,dailyrainin,SoftwareType,DateUTC
2013-09-20 00:03:00,63.1,50.3,29.75,SSE,155,0.0,2.0,63,0.00,,---,0.00,VWS V14.01,2013-09-20 07:03:00,
2013-09-20 00:08:00,63.2,50.4,29.75,SSE,155,0.0,0.0,63,0.00,,---,0.00,VWS V14.01,2013-09-20 07:08:00,
2013-09-20 00:13:00,62.9,50.1,29.75,East,96,1.0,2.0,63,0.00,,---,0.00,VWS V14.01,2013-09-20 07:13:00,
2013-09-20 00:18:00,62.8,50.0,29.75,ESE,112,1.0,1.0,63,0.00,,---,0.00,VWS V14.01,2013-09-20 07:18:00,
2013-09-20 00:23:00,63.0,49.8,29.75,ESE,115,0.0,0.0,62,0.00,,---,0.00,VWS V14.01,2013-09-20 07:23:00,
2013-09-20 00:28:00,63.4,49.7,29.75,SE,132,1.0,1.0,61,0.00,,---,0.00,VWS V14.01,2013-09-20 07:28:00,
2013-09-20 00:33:00,63.6,49.5,29.75,SE,132,1.0,1.0,60,0.00,,---,0.00,VWS V14.01,2013-09-20 07:33:00,
2013-09-20 00:38:00,64.0,49.4,29.75,SE,141,1.0,2.0,59,0.00,,---,0.00,VWS V14.01,2013-09-20 07:38:00,
2013-09-20 00:43:00,64.1,50.0,29.75,SSE,168,0.0,0.0,60,0.00,,---,0.00,VWS V14.01,2013-09-20 07:43:00,
2013-09-20 00:48:00,63.8,49.7,29.75,SSE,164,0.0,0.0,60,0.00,,---,0.00,VWS V14.01,2013-09-20 07:48:00,
2013-09-20 00:53:00,63.6,50.4,29.75,East,100,2.0,3.0,62,0.00,,---,0.00,VWS V14.01,2013-09-20 07:53:00,
2013-09-20 00:58:00,63.3,50.1,29.75,ESE,102,0.0,0.0,62,0.00,,---,0.00,VWS V14.01,2013-09-20 07:58:00,
2013-09-20 01:03:00,63.1,50.3,29.74,SE,146,0.0,0.0,63,0.00,,---,0.00,VWS V14.01,2013-09-20 08:03:00,
2013-09-20 01:08:00,62.9,50.5,29.74,ESE,110,0.0,1.0,64,0.00,,---,0.00,VWS V14.01,2013-09-20 08:08:00,
2013-09-20 01:13:00,62.7,50.8,29.75,ESE,120,1.0,1.0,65,0.00,,---,0.00,VWS V14.01,2013-09-20 08:13:00,
2013-09-20 01:18:00,62.6,50.7,29.75,SSE,157,0.0,0.0,65,0.00,,---,0.00,VWS V14.01,2013-09-20 08:18:00,
2013-09-20 01:23:00,62.3,50.8,29.75,SSE,155,0.0,0.0,66,0.00,,---,0.00,VWS V14.01,2013-09-20 08:23:00,
2013-09-20 01:28:00,61.8,50.7,29.75,SE,125,0.0,0.0,67,0.00,,---,0.00,VWS V14.01,2013-09-20 08:28:00,
2013-09-20 01:33:00,61.7,50.6,29.75,ESE,123,0.0,0.0,67,0.00,,---,0.00,VWS V14.01,2013-09-20 08:33:00,
2013-09-20 01:38:00,61.5,50.8,29.74,ESE,123,0.0,0.0,68,0.00,,---,0.00,VWS V14.01,2013-09-20 08:38:00,
2013-09-20 01:43:00,61.1,50.9,29.74,ESE,123,0.0,0.0,69,0.00,,---,0.00,VWS V14.01,2013-09-20 08:43:00,
2013-09-20 01:48:00,60.9,51.1,29.74,SE,140,0.0,0.0,70,0.00,,---,0.00,VWS V14.01,2013-09-20 08:48:00,
2013-09-20 01:53:00,60.8,51.0,29.74,East,90,0.0,0.0,70,0.00,,---,0.00,VWS V14.01,2013-09-20 08:53:00,
2013-09-20 01:58:00,60.8,51.0,29.74,East,94,1.0,2.0,70,0.00,,---,0.00,VWS V14.01,2013-09-20 08:58:00,
2013-09-20 02:03:00,61.0,50.8,29.74,ESE,102,0.0,1.0,69,0.00,,---,0.00,VWS V14.01,2013-09-20 09:03:00,
2013-09-20 02:08:00,61.1,50.5,29.74,SE,145,0.0,1.0,68,0.00,,---,0.00,VWS V14.01,2013-09-20 09:08:00,
2013-09-20 02:13:00,61.2,50.2,29.74,ESE,120,0.0,0.0,67,0.00,,---,0.00,VWS V14.01,2013-09-20 09:13:00,
2013-09-20 02:18:00,61.1,50.1,29.74,SSE,153,0.0,0.0,67,0.00,,---,0.00,VWS V14.01,2013-09-20 09:18:00,
2013-09-20 02:23:00,61.2,49.8,29.73,SE,141,0.0,0.0,66,0.00,,---,0.00,VWS V14.01,2013-09-20 09:23:00,
2013-09-20 02:28:00,61.2,48.9,29.73,SSE,153,0.0,0.0,64,0.00,,---,0.00,VWS V14.01,2013-09-20 09:28:00,
2013-09-20 02:33:00,61.2,48.9,29.73,East,91,1.0,1.0,64,0.00,,---,0.00,VWS V14.01,2013-09-20 09:33:00,
2013-09-20 02:38:00,61.1,48.8,29.73,ESE,102,0.0,0.0,64,0.00,,---,0.00,VWS V14.01,2013-09-20 09:38:00,
2013-09-20 02:43:00,60.8,49.0,29.73,East,100,0.0,0.0,65,0.00,,---,0.00,VWS V14.01,2013-09-20 09:43:00,
2013-09-20 02:48:00,60.4,49.0,29.73,East,100,0.0,0.0,66,0.00,,---,0.00,VWS V14.01,2013-09-20 09:48:00,
2013-09-20 02:53:00,60.3,49.3,29.73,East,95,0.0,0.0,67,0.00,,---,0.00,VWS V14.01,2013-09-20 09:53:00,
2013-09-20 02:58:00,60.1,49.1,29.73,East,96,0.0,0.0,67,0.00,,---,0.00,VWS V14.01,2013-09-20 09:58:00,
2013-09-20 03:03:00,60.1,49.1,29.73,ESE,103,0.0,0.0,67,0.00,,---,0.00,VWS V14.01,2013-09-20 10:03:00,
2013-09-20 03:08:00,60.0,49.0,29.73,ESE,102,0.0,0.0,67,0.00,,---,0.00,VWS V14.01,2013-09-20 10:08:00,
2013-09-20 03:13:00,59.7,49.1,29.72,East,98,0.0,0.0,68,0.00,,---,0.00,VWS V14.01,2013-09-20 10:13:00,
2013-09-20 03:18:00,59.7,49.5,29.72,East,93,0.0,0.0,69,0.00,,---,0.00,VWS V14.01,2013-09-20 10:18:00,
2013-09-20 03:23:00,59.5,49.7,29.72,East,98,0.0,0.0,70,0.00,,---,0.00,VWS V14.01,2013-09-20 10:23:00,
2013-09-20 03:28:00,59.1,49.3,29.72,East,91,0.0,0.0,70,0.00,,---,0.00,VWS V14.01,2013-09-20 10:28:00,
2013-09-20 03:33:00,59.0,48.9,29.72,East,99,0.0,0.0,69,0.00,,---,0.00,VWS V14.01,2013-09-20 10:33:00,
2013-09-20 03:38:00,59.0,48.1,29.72,ESE,103,0.0,0.0,67,0.00,,---,0.00,VWS V14.01,2013-09-20 10:38:00,
2013-09-20 03:43:00,59.1,47.8,29.72,East,95,0.0,0.0,66,0.00,,---,0.00,VWS V14.01,2013-09-20 10:43:00,
2013-09-20 03:48:00,59.1,47.8,29.72,ESE,103,0.0,0.0,66,0.00,,---,0.00,VWS V14.01,2013-09-20 10:48:00,
2013-09-20 03:53:00,59.0,48.1,29.72,East,94,0.0,0.0,67,0.00,,---,0.00,VWS V14.01,2013-09-20 10:53:00,
2013-09-20 03:58:00,59.1,48.2,29.72,ESE,105,1.0,3.0,67,0.00,,---,0.00,VWS V14.01,2013-09-20 10:58:00,
2013-09-20 04:03:00,59.1,48.2,29.72,East,96,1.0,2.0,67,0.00,,---,0.00,VWS V14.01,2013-09-20 11:03:00,
2013-09-20 04:08:00,59.0,48.5,29.72,East,95,1.0,2.0,68,0.00,,---,0.00,VWS V14.01,2013-09-20 11:08:00,
2013-09-20 04:13:00,58.9,48.8,29.71,East,98,2.0,2.0,69,0.00,,---,0.00,VWS V14.01,2013-09-20 11:13:00,
2013-09-20 04:18:00,58.7,48.6,29.71,East,94,2.0,2.0,69,0.00,,---,0.00,VWS V14.01,2013-09-20 11:18:00,
2013-09-20 04:23:00,58.5,48.8,29.71,East,98,2.0,3.0,70,0.00,,---,0.00,VWS V14.01,2013-09-20 11:23:00,
2013-09-20 04:28:00,58.4,48.7,29.71,East,90,2.0,2.0,70,0.00,,---,0.00,VWS V14.01,2013-09-20 11:28:00,
2013-09-20 04:33:00,58.2,49.2,29.70,East,89,2.0,3.0,72,0.00,,---,0.00,VWS V14.01,2013-09-20 11:33:00,
2013-09-20 04:38:00,57.8,49.6,29.70,East,95,3.0,3.0,74,0.00,,---,0.00,VWS V14.01,2013-09-20 11:38:00,
2013-09-20 04:43:00,57.6,49.8,29.70,East,82,3.0,3.0,75,0.00,,---,0.00,VWS V14.01,2013-09-20 11:43:00,
2013-09-20 04:48:00,57.5,49.7,29.70,East,99,2.0,4.0,75,0.00,,---,0.00,VWS V14.01,2013-09-20 11:48:00,
2013-09-20 04:53:00,57.5,49.7,29.70,East,98,2.0,3.0,75,0.00,,---,0.00,VWS V14.01,2013-09-20 11:53:00,
2013-09-20 04:58:00,57.5,49.3,29.70,East,95,1.0,1.0,74,0.00,,---,0.00,VWS V14.01,2013-09-20 11:58:00,
2013-09-20 05:03:00,57.5,49.7,29.69,East,94,1.0,1.0,75,0.00,,---,0.00,VWS V14.01,2013-09-20 12:03:00,
2013-09-20 05:08:00,57.5,49.7,29.69,East,101,2.0,4.0,75,0.00,,---,0.00,VWS V14.01,2013-09-20 12:08:00,
2013-09-20 05:13:00,57.4,49.9,29.69,East,94,2.0,3.0,76,0.00,,---,0.00,VWS V14.01,2013-09-20 12:13:00,
2013-09-20 05:18:00,57.3,50.2,29.69,East,99,0.0,1.0,77,0.00,,---,0.00,VWS V14.01,2013-09-20 12:18:00,
2013-09-20 05:23:00,57.1,50.3,29.69,East,88,0.0,1.0,78,0.00,,---,0.00,VWS V14.01,2013-09-20 12:23:00,
2013-09-20 05:28:00,56.8,50.0,29.69,East,88,0.0,0.0,78,0.00,,---,0.00,VWS V14.01,2013-09-20 12:28:00,
2013-09-20 05:33:00,56.4,50.3,29.69,East,91,1.0,1.0,80,0.00,,---,0.00,VWS V14.01,2013-09-20 12:33:00,
2013-09-20 05:38:00,56.5,50.1,29.69,East,96,1.0,2.0,79,0.00,,---,0.00,VWS V14.01,2013-09-20 12:38:00,
2013-09-20 05:43:00,56.6,50.2,29.68,East,98,2.0,2.0,79,0.00,,---,0.00,VWS V14.01,2013-09-20 12:43:00,
2013-09-20 05:48:00,56.8,50.0,29.68,SE,128,1.0,2.0,78,0.00,,---,0.00,VWS V14.01,2013-09-20 12:48:00,
2013-09-20 05:53:00,57.0,49.9,29.68,ESE,105,2.0,3.0,77,0.00,,---,0.00,VWS V14.01,2013-09-20 12:53:00,
2013-09-20 05:58:00,57.2,49.7,29.68,East,98,1.0,2.0,76,0.00,,---,0.00,VWS V14.01,2013-09-20 12:58:00,
2013-09-20 06:03:00,57.1,49.3,29.68,ESE,110,1.0,1.0,75,0.00,,---,0.00,VWS V14.01,2013-09-20 13:03:00,
2013-09-20 06:08:00,57.2,49.4,29.68,ESE,108,1.0,2.0,75,0.00,,---,0.00,VWS V14.01,2013-09-20 13:08:00,
2013-09-20 06:13:00,57.2,49.4,29.68,East,99,2.0,2.0,75,0.00,,---,0.00,VWS V14.01,2013-09-20 13:13:00,
2013-09-20 06:18:00,57.1,48.9,29.68,SSE,149,1.0,2.0,74,0.00,,---,0.00,VWS V14.01,2013-09-20 13:18:00,
2013-09-20 06:23:00,57.1,48.9,29.68,SE,141,0.0,1.0,74,0.00,,---,0.00,VWS V14.01,2013-09-20 13:23:00,
2013-09-20 06:28:00,57.2,48.6,29.68,SE,141,0.0,0.0,73,0.00,,---,0.00,VWS V14.01,2013-09-20 13:28:00,
2013-09-20 06:33:00,57.2,48.6,29.68,SE,145,0.0,1.0,73,0.00,,---,0.00,VWS V14.01,2013-09-20 13:33:00,
2013-09-20 06:38:00,57.3,48.7,29.67,SSE,150,1.0,3.0,73,0.00,,---,0.00,VWS V14.01,2013-09-20 13:38:00,
2013-09-20 06:43:00,57.4,48.8,29.68,SE,127,0.0,2.0,73,0.00,,---,0.00,VWS V14.01,2013-09-20 13:43:00,
2013-09-20 06:48:00,57.5,48.9,29.67,SSE,148,1.0,2.0,73,0.00,,---,0.00,VWS V14.01,2013-09-20 13:48:00,
2013-09-20 06:53:00,57.5,48.9,29.67,SE,127,0.0,3.0,73,0.00,,---,0.00,VWS V14.01,2013-09-20 13:53:00,
2013-09-20 06:58:00,57.5,48.9,29.67,East,94,0.0,2.0,73,0.00,,---,0.00,VWS V14.01,2013-09-20 13:58:00,
2013-09-20 07:03:00,57.4,48.8,29.67,East,96,0.0,0.0,73,0.00,,---,0.00,VWS V14.01,2013-09-20 14:03:00,
2013-09-20 07:08:00,57.3,48.7,29.67,ESE,117,0.0,1.0,73,0.00,,---,0.00,VWS V14.01,2013-09-20 14:08:00,
2013-09-20 07:13:00,57.4,49.2,29.67,ESE,117,0.0,2.0,74,0.00,,---,0.00,VWS V14.01,2013-09-20 14:13:00,
2013-09-20 07:18:00,57.5,49.3,29.67,East,99,0.0,2.0,74,0.00,,---,0.00,VWS V14.01,2013-09-20 14:18:00,
2013-09-20 07:23:00,57.5,49.7,29.67,East,87,3.0,3.0,75,0.00,,---,0.00,VWS V14.01,2013-09-20 14:23:00,
2013-09-20 07:28:00,57.5,49.7,29.67,East,90,3.0,4.0,75,0.00,,---,0.00,VWS V14.01,2013-09-20 14:28:00,
2013-09-20 07:33:00,57.6,50.1,29.67,ESE,108,2.0,3.0,76,0.00,,---,0.00,VWS V14.01,2013-09-20 14:33:00,
2013-09-20 07:38:00,57.6,50.1,29.66,East,91,3.0,4.0,76,0.00,,---,0.00,VWS V14.01,2013-09-20 14:38:00,
2013-09-20 07:43:00,57.8,49.9,29.66,East,88,3.0,3.0,75,0.00,,---,0.00,VWS V14.01,2013-09-20 14:43:00,
2013-09-20 07:48:00,58.0,50.1,29.67,East,95,0.0,1.0,75,0.00,,---,0.00,VWS V14.01,2013-09-20 14:48:00,
2013-09-20 07:53:00,58.2,50.3,29.66,ESE,117,1.0,2.0,75,0.00,,---,0.00,VWS V14.01,2013-09-20 14:53:00,
2013-09-20 07:58:00,58.6,50.7,29.67,SSE,165,0.0,1.0,75,0.00,,---,0.00,VWS V14.01,2013-09-20 14:58:00,
2013-09-20 08:03:00,59.0,50.7,29.67,SSE,153,0.0,0.0,74,0.00,,---,0.00,VWS V14.01,2013-09-20 15:03:00,
2013-09-20 08:08:00,58.8,50.9,29.67,South,191,0.0,0.0,75,0.00,,---,0.00,VWS V14.01,2013-09-20 15:08:00,
2013-09-20 08:13:00,58.8,51.3,29.67,SW,223,0.0,0.0,76,0.00,,---,0.00,VWS V14.01,2013-09-20 15:13:00,
2013-09-20 08:18:00,59.1,51.5,29.67,SSW,209,0.0,1.0,76,0.00,,---,0.00,VWS V14.01,2013-09-20 15:18:00,
2013-09-20 08:23:00,59.7,51.4,29.67,SSE,150,0.0,0.0,74,0.00,,---,0.00,VWS V14.01,2013-09-20 15:23:00,
2013-09-20 08:28:00,60.0,52.1,29.67,SSE,150,0.0,0.0,75,0.00,,---,0.00,VWS V14.01,2013-09-20 15:28:00,
2013-09-20 08:33:00,60.7,51.6,29.67,SE,144,0.0,1.0,72,0.00,,---,0.00,VWS V14.01,2013-09-20 15:33:00,
2013-09-20 08:38:00,61.0,51.5,29.67,WSW,258,1.0,3.0,71,0.00,,---,0.00,VWS V14.01,2013-09-20 15:38:00,
2013-09-20 08:43:00,61.1,51.6,29.66,SE,134,0.0,2.0,71,0.00,,---,0.00,VWS V14.01,2013-09-20 15:43:00,
2013-09-20 08:48:00,61.7,51.8,29.67,SSE,155,0.0,1.0,70,0.00,,---,0.00,VWS V14.01,2013-09-20 15:48:00,
2013-09-20 08:53:00,62.0,51.7,29.67,South,174,2.0,3.0,69,0.00,,---,0.00,VWS V14.01,2013-09-20 15:53:00,
2013-09-20 08:58:00,62.0,51.7,29.66,SSE,158,0.0,1.0,69,0.00,,---,0.00,VWS V14.01,2013-09-20 15:58:00,
2013-09-20 09:03:00,61.9,51.6,29.66,SSW,194,0.0,1.0,69,0.00,,---,0.00,VWS V14.01,2013-09-20 16:03:00,
2013-09-20 09:08:00,62.0,52.1,29.66,SE,137,0.0,1.0,70,0.00,,---,0.00,VWS V14.01,2013-09-20 16:08:00,
2013-09-20 09:13:00,62.1,51.8,29.66,SSE,154,0.0,1.0,69,0.00,,---,0.00,VWS V14.01,2013-09-20 16:13:00,
2013-09-20 09:18:00,62.2,51.9,29.66,SE,135,1.0,2.0,69,0.00,,---,0.00,VWS V14.01,2013-09-20 16:18:00,
2013-09-20 09:23:00,62.4,52.1,29.66,SSE,150,0.0,1.0,69,0.00,,---,0.00,VWS V14.01,2013-09-20 16:23:00,
2013-09-20 09:28:00,62.5,52.6,29.66,South,182,0.0,1.0,70,0.00,,---,0.00,VWS V14.01,2013-09-20 16:28:00,
2013-09-20 09:33:00,62.6,52.3,29.66,SSE,155,1.0,4.0,69,0.00,,---,0.00,VWS V14.01,2013-09-20 16:33:00,
2013-09-20 09:38:00,62.8,52.5,29.66,SSE,158,0.0,1.0,69,0.00,,---,0.00,VWS V14.01,2013-09-20 16:38:00,
2013-09-20 09:43:00,63.1,52.8,29.65,SSW,197,0.0,0.0,69,0.00,,---,0.00,VWS V14.01,2013-09-20 16:43:00,
2013-09-20 09:48:00,63.4,52.7,29.65,South,172,1.0,1.0,68,0.00,,---,0.00,VWS V14.01,2013-09-20 16:48:00,
2013-09-20 09:53:00,63.4,52.3,29.65,SE,144,0.0,1.0,67,0.00,,---,0.00,VWS V14.01,2013-09-20 16:53:00,
2013-09-20 09:58:00,63.7,52.5,29.65,SE,146,1.0,1.0,67,0.00,,---,0.00,VWS V14.01,2013-09-20 16:58:00,
2013-09-20 10:03:00,64.0,52.8,29.65,SSE,160,1.0,2.0,67,0.00,,---,0.00,VWS V14.01,2013-09-20 17:03:00,
2013-09-20 10:08:00,64.5,53.3,29.65,SE,125,0.0,1.0,67,0.00,,---,0.00,VWS V14.01,2013-09-20 17:08:00,
2013-09-20 10:13:00,64.7,53.5,29.65,SW,219,0.0,1.0,67,0.00,,---,0.00,VWS V14.01,2013-09-20 17:13:00,
2013-09-20 10:18:00,64.9,53.3,29.65,WSW,254,0.0,0.0,66,0.00,,---,0.00,VWS V14.01,2013-09-20 17:18:00,
2013-09-20 10:23:00,65.1,53.5,29.65,SE,142,2.0,3.0,66,0.00,,---,0.00,VWS V14.01,2013-09-20 17:23:00,
2013-09-20 10:28:00,65.2,53.2,29.65,SE,144,0.0,2.0,65,0.00,,---,0.00,VWS V14.01,2013-09-20 17:28:00,
2013-09-20 10:33:00,65.5,53.4,29.65,SSE,147,2.0,2.0,65,0.00,,---,0.00,VWS V14.01,2013-09-20 17:33:00,
2013-09-20 10:38:00,65.8,54.1,29.65,SSE,164,0.0,0.0,66,0.00,,---,0.00,VWS V14.01,2013-09-20 17:38:00,
2013-09-20 10:43:00,66.1,53.6,29.65,SE,144,0.0,1.0,64,0.00,,---,0.00,VWS V14.01,2013-09-20 17:43:00,
2013-09-20 10:48:00,65.7,53.6,29.65,WNW,283,0.0,1.0,65,0.00,,---,0.00,VWS V14.01,2013-09-20 17:48:00,
2013-09-20 10:53:00,66.0,53.9,29.64,SW,221,0.0,1.0,65,0.00,,---,0.00,VWS V14.01,2013-09-20 17:53:00,
2013-09-20 10:58:00,66.4,53.9,29.64,SE,131,1.0,2.0,64,0.00,,---,0.00,VWS V14.01,2013-09-20 17:58:00,
2013-09-20 11:03:00,66.6,54.5,29.64,SSE,163,2.0,2.0,65,0.00,,---,0.00,VWS V14.01,2013-09-20 18:03:00,
2013-09-20 11:08:00,66.9,54.3,29.64,SW,232,0.0,1.0,64,0.00,,---,0.00,VWS V14.01,2013-09-20 18:08:00,
2013-09-20 11:13:00,67.0,54.4,29.64,SW,214,0.0,1.0,64,0.00,,---,0.00,VWS V14.01,2013-09-20 18:13:00,
2013-09-20 11:18:00,67.3,54.7,29.64,SE,143,0.0,0.0,64,0.00,,---,0.00,VWS V14.01,2013-09-20 18:18:00,
2013-09-20 11:23:00,67.9,54.4,29.64,SSE,155,1.0,1.0,62,0.00,,---,0.00,VWS V14.01,2013-09-20 18:23:00,
2013-09-20 11:28:00,68.6,54.6,29.63,SW,223,0.0,1.0,61,0.00,,---,0.00,VWS V14.01,2013-09-20 18:28:00,
2013-09-20 11:33:00,69.0,55.0,29.63,WSW,238,0.0,4.0,61,0.00,,---,0.00,VWS V14.01,2013-09-20 18:33:00,
2013-09-20 11:38:00,69.5,55.0,29.63,SE,141,0.0,1.0,60,0.00,,---,0.00,VWS V14.01,2013-09-20 18:38:00,
2013-09-20 11:43:00,70.1,54.7,29.63,SSW,212,0.0,3.0,58,0.00,,---,0.00,VWS V14.01,2013-09-20 18:43:00,
2013-09-20 11:48:00,70.0,54.1,29.63,West,266,2.0,5.0,57,0.00,,---,0.00,VWS V14.01,2013-09-20 18:48:00,
2013-09-20 11:53:00,69.5,54.1,29.63,SSE,165,0.0,3.0,58,0.00,,---,0.00,VWS V14.01,2013-09-20 18:53:00,
2013-09-20 11:58:00,69.6,54.2,29.63,SE,136,1.0,1.0,58,0.00,,---,0.00,VWS V14.01,2013-09-20 18:58:00,
2013-09-20 12:03:00,69.9,54.0,29.62,WNW,283,0.0,3.0,57,0.00,,---,0.00,VWS V14.01,2013-09-20 19:03:00,
2013-09-20 12:08:00,69.6,54.2,29.62,SSW,208,0.0,5.0,58,0.00,,---,0.00,VWS V14.01,2013-09-20 19:08:00,
2013-09-20 12:13:00,69.7,54.3,29.62,WSW,244,0.0,5.0,58,0.00,,---,0.00,VWS V14.01,2013-09-20 19:13:00,
2013-09-20 12:18:00,69.8,54.4,29.62,SSW,203,0.0,0.0,58,0.00,,---,0.00,VWS V14.01,2013-09-20 19:18:00,
2013-09-20 12:23:00,69.9,54.0,29.62,WNW,297,1.0,3.0,57,0.00,,---,0.00,VWS V14.01,2013-09-20 19:23:00,
2013-09-20 12:28:00,70.1,54.7,29.62,WSW,255,1.0,2.0,58,0.00,,---,0.00,VWS V14.01,2013-09-20 19:28:00,
2013-09-20 12:33:00,69.9,54.0,29.61,WSW,256,0.0,2.0,57,0.00,,---,0.00,VWS V14.01,2013-09-20 19:33:00,
2013-09-20 12:38:00,69.8,54.8,29.61,WSW,255,0.0,1.0,59,0.00,,---,0.00,VWS V14.01,2013-09-20 19:38:00,
2013-09-20 12:43:00,69.7,54.8,29.61,West,279,2.0,4.0,59,0.00,,---,0.00,VWS V14.01,2013-09-20 19:43:00,
2013-09-20 12:48:00,69.6,54.7,29.61,West,263,1.0,3.0,59,0.00,,---,0.00,VWS V14.01,2013-09-20 19:48:00,
2013-09-20 12:53:00,69.8,54.4,29.61,West,276,1.0,4.0,58,0.00,,---,0.00,VWS V14.01,2013-09-20 19:53:00,
2013-09-20 12:58:00,70.3,54.8,29.61,WSW,249,3.0,3.0,58,0.00,,---,0.00,VWS V14.01,2013-09-20 19:58:00,
2013-09-20 13:03:00,70.7,54.7,29.61,SSE,167,1.0,2.0,57,0.00,,---,0.00,VWS V14.01,2013-09-20 20:03:00,
2013-09-20 13:08:00,71.2,54.2,29.61,West,268,1.0,4.0,55,0.00,,---,0.00,VWS V14.01,2013-09-20 20:08:00,
2013-09-20 13:13:00,71.6,55.6,29.61,SE,130,1.0,2.0,57,0.00,,---,0.00,VWS V14.01,2013-09-20 20:13:00,
2013-09-20 13:18:00,71.9,54.4,29.61,WSW,257,2.0,3.0,54,0.00,,---,0.00,VWS V14.01,2013-09-20 20:18:00,
2013-09-20 13:23:00,71.8,53.8,29.61,SE,139,0.0,4.0,53,0.00,,---,0.00,VWS V14.01,2013-09-20 20:23:00,
2013-09-20 13:28:00,71.6,53.1,29.61,West,269,2.0,6.0,52,0.00,,---,0.00,VWS V14.01,2013-09-20 20:28:00,
2013-09-20 13:33:00,71.0,53.0,29.61,WSW,252,2.0,3.0,53,0.00,,---,0.00,VWS V14.01,2013-09-20 20:33:00,
2013-09-20 13:38:00,71.0,53.5,29.60,WSW,257,1.0,1.0,54,0.00,,---,0.00,VWS V14.01,2013-09-20 20:38:00,
2013-09-20 13:43:00,71.7,53.7,29.60,SSW,207,1.0,2.0,53,0.00,,---,0.00,VWS V14.01,2013-09-20 20:43:00,
2013-09-20 13:48:00,72.0,54.5,29.60,SSW,212,1.0,2.0,54,0.00,,---,0.00,VWS V14.01,2013-09-20 20:48:00,
2013-09-20 13:53:00,72.1,54.0,29.60,West,263,2.0,3.0,53,0.00,,---,0.00,VWS V14.01,2013-09-20 20:53:00,
2013-09-20 13:58:00,72.2,54.1,29.60,SSW,194,1.0,4.0,53,0.00,,---,0.00,VWS V14.01,2013-09-20 20:58:00,
2013-09-20 14:03:00,72.7,54.6,29.60,SSE,167,1.0,2.0,53,0.00,,---,0.00,VWS V14.01,2013-09-20 21:03:00,
2013-09-20 14:08:00,73.0,55.4,29.60,NW,308,2.0,2.0,54,0.00,,---,0.00,VWS V14.01,2013-09-20 21:08:00,
2013-09-20 14:13:00,73.1,55.0,29.60,SE,143,2.0,3.0,53,0.00,,---,0.00,VWS V14.01,2013-09-20 21:13:00,
2013-09-20 14:18:00,73.5,55.3,29.60,SSE,159,0.0,1.0,53,0.00,,---,0.00,VWS V14.01,2013-09-20 21:18:00,
2013-09-20 14:23:00,73.9,55.7,29.60,SSW,206,1.0,1.0,53,0.00,,---,0.00,VWS V14.01,2013-09-20 21:23:00,
2013-09-20 14:28:00,74.2,55.5,29.59,SSE,150,2.0,5.0,52,0.00,,---,0.00,VWS V14.01,2013-09-20 21:28:00,
2013-09-20 14:33:00,74.4,55.1,29.59,SSW,212,4.0,4.0,51,0.00,,---,0.00,VWS V14.01,2013-09-20 21:33:00,
2013-09-20 14:38:00,74.0,55.3,29.59,South,169,2.0,3.0,52,0.00,,---,0.00,VWS V14.01,2013-09-20 21:38:00,
2013-09-20 14:43:00,74.0,54.7,29.59,SE,136,2.0,3.0,51,0.00,,---,0.00,VWS V14.01,2013-09-20 21:43:00,
2013-09-20 14:48:00,74.3,55.0,29.59,SE,146,2.0,3.0,51,0.00,,---,0.00,VWS V14.01,2013-09-20 21:48:00,
2013-09-20 14:52:00,74.4,55.1,29.59,SW,224,0.0,2.0,51,0.00,,---,0.00,VWS V14.01,2013-09-20 21:52:00,
2013-09-20 14:57:00,73.9,54.7,29.59,WSW,248,0.0,3.0,51,0.00,,---,0.00,VWS V14.01,2013-09-20 21:57:00,
2013-09-20 15:02:00,73.1,55.0,29.59,WSW,257,0.0,2.0,53,0.00,,---,0.00,VWS V14.01,2013-09-20 22:02:00,
2013-09-20 15:07:00,72.4,54.3,29.59,WSW,242,1.0,3.0,53,0.00,,---,0.00,VWS V14.01,2013-09-20 22:07:00,
2013-09-20 15:12:00,71.9,54.9,29.59,WSW,248,1.0,2.0,55,0.00,,---,0.00,VWS V14.01,2013-09-20 22:12:00,
2013-09-20 15:17:00,71.8,54.8,29.59,SE,146,0.0,1.0,55,0.00,,---,0.00,VWS V14.01,2013-09-20 22:17:00,
2013-09-20 15:22:00,71.7,54.7,29.59,WSW,244,1.0,3.0,55,0.00,,---,0.00,VWS V14.01,2013-09-20 22:22:00,
2013-09-20 15:27:00,71.8,54.3,29.59,WSW,251,3.0,3.0,54,0.00,,---,0.00,VWS V14.01,2013-09-20 22:27:00,
2013-09-20 15:32:00,71.4,54.4,29.59,SSE,149,1.0,2.0,55,0.00,,---,0.00,VWS V14.01,2013-09-20 22:32:00,
2013-09-20 15:37:00,71.2,53.7,29.59,SW,226,1.0,2.0,54,0.00,,---,0.00,VWS V14.01,2013-09-20 22:37:00,
2013-09-20 15:42:00,71.4,54.9,29.59,SSE,157,0.0,1.0,56,0.00,,---,0.00,VWS V14.01,2013-09-20 22:42:00,
2013-09-20 15:47:00,71.5,55.0,29.59,SSE,162,1.0,1.0,56,0.00,,---,0.00,VWS V14.01,2013-09-20 22:47:00,
2013-09-20 15:52:00,71.2,54.2,29.59,WSW,254,1.0,3.0,55,0.00,,---,0.00,VWS V14.01,2013-09-20 22:52:00,
2013-09-20 15:57:00,70.8,54.3,29.59,WSW,249,1.0,2.0,56,0.00,,---,0.00,VWS V14.01,2013-09-20 22:57:00,
2013-09-20 16:02:00,70.4,54.5,29.59,South,188,1.0,3.0,57,0.00,,---,0.00,VWS V14.01,2013-09-20 23:02:00,
2013-09-20 16:07:00,70.3,54.8,29.59,WSW,247,0.0,1.0,58,0.00,,---,0.00,VWS V14.01,2013-09-20 23:07:00,
2013-09-20 16:12:00,70.9,54.9,29.60,SSW,200,2.0,5.0,57,0.00,,---,0.00,VWS V14.01,2013-09-20 23:12:00,
2013-09-20 16:17:00,71.2,54.2,29.60,WSW,252,3.0,4.0,55,0.00,,---,0.00,VWS V14.01,2013-09-20 23:17:00,
2013-09-20 16:22:00,71.3,54.8,29.60,SW,222,2.0,2.0,56,0.00,,---,0.00,VWS V14.01,2013-09-20 23:22:00,
2013-09-20 16:27:00,71.3,54.8,29.60,SE,127,2.0,6.0,56,0.00,,---,0.00,VWS V14.01,2013-09-20 23:27:00,
2013-09-20 16:32:00,70.7,54.2,29.60,WSW,242,1.0,3.0,56,0.00,,---,0.00,VWS V14.01,2013-09-20 23:32:00,
2013-09-20 16:37:00,70.1,55.1,29.60,West,276,2.0,2.0,59,0.00,,---,0.00,VWS V14.01,2013-09-20 23:37:00,
2013-09-20 16:42:00,69.7,55.2,29.59,SE,141,2.0,2.0,60,0.00,,---,0.00,VWS V14.01,2013-09-20 23:42:00,
2013-09-20 16:47:00,69.5,55.0,29.59,WSW,237,1.0,2.0,60,0.00,,---,0.00,VWS V14.01,2013-09-20 23:47:00,
2013-09-20 16:52:00,69.2,55.2,29.60,WSW,241,0.0,2.0,61,0.00,,---,0.00,VWS V14.01,2013-09-20 23:52:00,
2013-09-20 16:57:00,69.0,55.5,29.60,WSW,245,0.0,1.0,62,0.00,,---,0.00,VWS V14.01,2013-09-20 23:57:00,
2013-09-20 17:02:00,68.7,55.6,29.60,SSE,160,2.0,2.0,63,0.00,,---,0.00,VWS V14.01,2013-09-21 00:02:00,
2013-09-20 17:07:00,68.3,55.7,29.60,West,267,3.0,7.0,64,0.00,,---,0.00,VWS V14.01,2013-09-21 00:07:00,
2013-09-20 17:12:00,68.0,55.8,29.60,WSW,248,2.0,4.0,65,0.00,,---,0.00,VWS V14.01,2013-09-21 00:12:00,
2013-09-20 17:17:00,67.5,56.2,29.61,WSW,252,5.0,12.0,67,0.00,,---,0.00,VWS V14.01,2013-09-21 00:17:00,
2013-09-20 17:22:00,66.9,56.0,29.61,SW,230,3.0,11.0,68,0.00,,---,0.00,VWS V14.01,2013-09-21 00:22:00,
2013-09-20 17:27:00,66.3,55.0,29.61,SW,217,10.0,10.0,67,0.00,,---,0.00,VWS V14.01,2013-09-21 00:27:00,
2013-09-20 17:32:00,66.2,54.5,29.61,West,269,3.0,3.0,66,0.00,,---,0.00,VWS V14.01,2013-09-21 00:32:00,
2013-09-20 17:37:00,66.0,53.9,29.61,WSW,249,2.0,4.0,65,0.00,,---,0.00,VWS V14.01,2013-09-21 00:37:00,
2013-09-20 17:42:00,65.9,53.4,29.61,WSW,240,3.0,4.0,64,0.00,,---,0.00,VWS V14.01,2013-09-21 00:42:00,
2013-09-20 17:47:00,65.7,52.8,29.61,West,276,3.0,9.0,63,0.00,,---,0.00,VWS V14.01,2013-09-21 00:47:00,
2013-09-20 17:52:00,65.4,53.8,29.62,WSW,245,2.0,3.0,66,0.00,,---,0.00,VWS V14.01,2013-09-21 00:52:00,
2013-09-20 17:57:00,64.9,52.9,29.62,WSW,240,4.0,11.0,65,0.00,,---,0.00,VWS V14.01,2013-09-21 00:57:00,
2013-09-20 18:02:00,64.5,52.9,29.62,West,264,5.0,6.0,66,0.00,,---,0.00,VWS V14.01,2013-09-21 01:02:00,
2013-09-20 18:07:00,64.3,52.7,29.63,West,259,4.0,5.0,66,0.00,,---,0.00,VWS V14.01,2013-09-21 01:07:00,
2013-09-20 18:12:00,64.0,52.8,29.63,SW,226,9.0,12.0,67,0.00,,---,0.00,VWS V14.01,2013-09-21 01:12:00,
2013-09-20 18:17:00,63.7,53.0,29.63,WSW,238,2.0,5.0,68,0.00,,---,0.00,VWS V14.01,2013-09-21 01:17:00,
2013-09-20 18:22:00,63.5,53.2,29.63,SSW,212,2.0,7.0,69,0.00,,---,0.00,VWS V14.01,2013-09-21 01:22:00,
2013-09-20 18:27:00,63.2,52.9,29.64,WNW,293,1.0,4.0,69,0.00,,---,0.00,VWS V14.01,2013-09-21 01:27:00,
2013-09-20 18:32:00,63.0,53.1,29.64,SW,226,1.0,4.0,70,0.00,,---,0.00,VWS V14.01,2013-09-21 01:32:00,
2013-09-20 18:37:00,62.6,53.5,29.65,SSE,150,1.0,3.0,72,0.00,,---,0.00,VWS V14.01,2013-09-21 01:37:00,
2013-09-20 18:42:00,62.2,53.5,29.65,SSE,158,2.0,2.0,73,0.00,,---,0.00,VWS V14.01,2013-09-21 01:42:00,
2013-09-20 18:47:00,61.8,54.5,29.67,SSE,157,2.0,3.0,77,0.00,,---,0.00,VWS V14.01,2013-09-21 01:47:00,
2013-09-20 18:52:00,60.9,54.7,29.67,South,171,2.0,5.0,80,0.01,,---,0.01,VWS V14.01,2013-09-21 01:52:00,
2013-09-20 18:57:00,59.9,55.1,29.66,WSW,248,0.0,7.0,84,0.02,,---,0.02,VWS V14.01,2013-09-21 01:57:00,
2013-09-20 19:02:00,59.1,54.9,29.66,SSE,156,0.0,3.0,86,0.03,,---,0.03,VWS V14.01,2013-09-21 02:02:00,
2013-09-20 19:07:00,58.7,54.8,29.66,SSE,147,0.0,2.0,87,0.05,,---,0.05,VWS V14.01,2013-09-21 02:07:00,
2013-09-20 19:12:00,58.3,54.5,29.66,SSE,150,0.0,2.0,87,0.06,,---,0.06,VWS V14.01,2013-09-21 02:12:00,
2013-09-20 19:17:00,58.1,54.3,29.66,SSE,162,1.0,1.0,87,0.07,,---,0.07,VWS V14.01,2013-09-21 02:17:00,
2013-09-20 19:22:00,58.0,54.5,29.66,SE,143,1.0,2.0,88,0.08,,---,0.08,VWS V14.01,2013-09-21 02:22:00,
2013-09-20 19:27:00,57.9,54.4,29.65,SE,125,0.0,1.0,88,0.09,,---,0.09,VWS V14.01,2013-09-21 02:27:00,
2013-09-20 19:32:00,57.8,54.3,29.65,South,171,0.0,1.0,88,0.09,,---,0.09,VWS V14.01,2013-09-21 02:32:00,
2013-09-20 19:37:00,57.6,54.1,29.65,SE,134,2.0,2.0,88,0.09,,---,0.09,VWS V14.01,2013-09-21 02:37:00,
2013-09-20 19:42:00,57.5,54.0,29.65,SE,127,1.0,1.0,88,0.10,,---,0.10,VWS V14.01,2013-09-21 02:42:00,
2013-09-20 19:47:00,57.5,54.0,29.65,SE,124,0.0,0.0,88,0.10,,---,0.10,VWS V14.01,2013-09-21 02:47:00,
2013-09-20 19:52:00,57.7,54.2,29.65,ESE,118,0.0,3.0,88,0.09,,---,0.10,VWS V14.01,2013-09-21 02:52:00,
2013-09-20 19:57:00,57.8,54.3,29.65,SSE,148,0.0,0.0,88,0.08,,---,0.10,VWS V14.01,2013-09-21 02:57:00,
2013-09-20 20:02:00,57.9,54.4,29.65,ESE,107,2.0,4.0,88,0.07,,---,0.10,VWS V14.01,2013-09-21 03:02:00,
2013-09-20 20:07:00,58.0,54.5,29.65,ESE,122,1.0,1.0,88,0.05,,---,0.10,VWS V14.01,2013-09-21 03:07:00,
2013-09-20 20:12:00,57.9,54.4,29.65,SE,132,0.0,0.0,88,0.04,,---,0.10,VWS V14.01,2013-09-21 03:12:00,
2013-09-20 20:17:00,57.9,54.4,29.65,East,83,2.0,3.0,88,0.03,,---,0.10,VWS V14.01,2013-09-21 03:17:00,
2013-09-20 20:22:00,57.9,54.4,29.65,SSW,211,1.0,3.0,88,0.02,,---,0.10,VWS V14.01,2013-09-21 03:22:00,
2013-09-20 20:27:00,57.9,54.4,29.65,East,101,3.0,4.0,88,0.01,,---,0.10,VWS V14.01,2013-09-21 03:27:00,
2013-09-20 20:32:00,57.9,54.4,29.65,ESE,106,2.0,3.0,88,0.01,,---,0.10,VWS V14.01,2013-09-21 03:32:00,
2013-09-20 20:37:00,57.9,54.4,29.65,ESE,108,1.0,2.0,88,0.01,,---,0.10,VWS V14.01,2013-09-21 03:37:00,
2013-09-20 20:42:00,57.9,54.4,29.64,SE,131,0.0,1.0,88,0.01,,---,0.10,VWS V14.01,2013-09-21 03:42:00,
2013-09-20 20:47:00,57.9,54.4,29.65,SE,128,0.0,1.0,88,0.00,,---,0.10,VWS V14.01,2013-09-21 03:47:00,
2013-09-20 20:52:00,57.9,54.4,29.65,SSW,213,1.0,2.0,88,0.00,,---,0.10,VWS V14.01,2013-09-21 03:52:00,
2013-09-20 20:57:00,57.8,54.3,29.65,SE,129,0.0,1.0,88,0.00,,---,0.10,VWS V14.01,2013-09-21 03:57:00,
2013-09-20 21:01:00,57.7,54.2,29.65,SE,143,0.0,2.0,88,0.00,,---,0.10,VWS V14.01,2013-09-21 04:01:00,
2013-09-20 21:02:00,57.7,54.2,29.65,SE,140,0.0,2.0,88,0.00,,---,0.10,VWS V14.01,2013-09-21 04:02:00,
2013-09-20 21:07:00,57.7,54.2,29.65,SSE,168,0.0,2.0,88,0.00,,---,0.10,VWS V14.01,2013-09-21 04:07:00,
2013-09-20 21:12:00,57.8,54.3,29.65,SE,131,1.0,1.0,88,0.00,,---,0.10,VWS V14.01,2013-09-21 04:12:00,
2013-09-20 21:16:00,57.8,54.3,29.65,ESE,107,0.0,2.0,88,0.00,,---,0.10,VWS V14.01,2013-09-21 04:16:00,
2013-09-20 21:21:00,57.9,54.4,29.65,ESE,105,0.0,1.0,88,0.00,,---,0.10,VWS V14.01,2013-09-21 04:21:00,
2013-09-20 21:26:00,58.0,54.5,29.65,East,98,2.0,3.0,88,0.00,,---,0.10,VWS V14.01,2013-09-21 04:26:00,
2013-09-20 21:31:00,58.1,54.6,29.65,East,82,3.0,4.0,88,0.00,,---,0.10,VWS V14.01,2013-09-21 04:31:00,
2013-09-20 21:36:00,58.1,54.6,29.64,East,95,3.0,5.0,88,0.00,,---,0.10,VWS V14.01,2013-09-21 04:36:00,
2013-09-20 21:41:00,58.1,54.6,29.64,ENE,72,0.0,4.0,88,0.00,,---,0.10,VWS V14.01,2013-09-21 04:41:00,
2013-09-20 21:46:00,58.0,54.5,29.64,ESE,108,3.0,3.0,88,0.00,,---,0.10,VWS V14.01,2013-09-21 04:46:00,
2013-09-20 21:51:00,58.1,54.6,29.64,East,101,2.0,4.0,88,0.00,,---,0.10,VWS V14.01,2013-09-21 04:51:00,
2013-09-20 21:56:00,58.2,54.7,29.64,East,90,1.0,3.0,88,0.00,,---,0.10,VWS V14.01,2013-09-21 04:56:00,
2013-09-20 22:01:00,58.3,54.8,29.65,East,95,1.0,4.0,88,0.00,,---,0.10,VWS V14.01,2013-09-21 05:01:00,
2013-09-20 22:06:00,58.4,54.9,29.65,ESE,104,0.0,3.0,88,0.00,,---,0.10,VWS V14.01,2013-09-21 05:06:00,
2013-09-20 22:11:00,58.4,54.9,29.65,East,95,1.0,1.0,88,0.00,,---,0.10,VWS V14.01,2013-09-21 05:11:00,
2013-09-20 22:16:00,58.5,55.0,29.65,East,97,2.0,3.0,88,0.00,,---,0.10,VWS V14.01,2013-09-21 05:16:00,
2013-09-20 22:21:00,58.6,55.1,29.65,East,99,1.0,4.0,88,0.00,,---,0.10,VWS V14.01,2013-09-21 05:21:00,
2013-09-20 22:26:00,58.7,55.2,29.65,East,87,0.0,3.0,88,0.00,,---,0.10,VWS V14.01,2013-09-21 05:26:00,
2013-09-20 22:31:00,58.8,55.3,29.65,East,93,2.0,3.0,88,0.00,,---,0.10,VWS V14.01,2013-09-21 05:31:00,
2013-09-20 22:36:00,58.9,55.4,29.65,East,87,2.0,3.0,88,0.00,,---,0.10,VWS V14.01,2013-09-21 05:36:00,
2013-09-20 22:41:00,59.1,55.5,29.65,ESE,105,2.0,5.0,88,0.00,,---,0.10,VWS V14.01,2013-09-21 05:41:00,
2013-09-20 22:46:00,59.1,55.5,29.65,East,98,1.0,4.0,88,0.00,,---,0.10,VWS V14.01,2013-09-21 05:46:00,
2013-09-20 22:51:00,59.1,55.5,29.65,East,80,0.0,2.0,88,0.00,,---,0.10,VWS V14.01,2013-09-21 05:51:00,
2013-09-20 22:56:00,59.0,55.5,29.65,SSE,158,0.0,2.0,88,0.00,,---,0.10,VWS V14.01,2013-09-21 05:56:00,
2013-09-20 23:01:00,58.9,55.4,29.65,SSE,150,0.0,0.0,88,0.00,,---,0.10,VWS V14.01,2013-09-21 06:01:00,
2013-09-20 23:06:00,59.0,55.5,29.65,SE,139,1.0,5.0,88,0.00,,---,0.10,VWS V14.01,2013-09-21 06:06:00,
2013-09-20 23:11:00,59.1,55.5,29.65,SSE,150,1.0,4.0,88,0.00,,---,0.10,VWS V14.01,2013-09-21 06:11:00,
2013-09-20 23:16:00,59.4,55.5,29.64,SSW,203,1.0,6.0,87,0.00,,---,0.10,VWS V14.01,2013-09-21 06:16:00,
2013-09-20 23:21:00,59.5,55.6,29.64,SE,131,2.0,7.0,87,0.00,,---,0.10,VWS V14.01,2013-09-21 06:21:00,
2013-09-20 23:26:00,59.6,55.7,29.65,ESE,110,2.0,5.0,87,0.00,,---,0.10,VWS V14.01,2013-09-21 06:26:00,
2013-09-20 23:31:00,59.6,55.7,29.64,SSW,195,3.0,5.0,87,0.00,,---,0.10,VWS V14.01,2013-09-21 06:31:00,
2013-09-20 23:36:00,59.6,55.7,29.64,SW,230,3.0,5.0,87,0.00,,---,0.10,VWS V14.01,2013-09-21 06:36:00,
2013-09-20 23:41:00,59.5,55.6,29.64,SE,124,1.0,7.0,87,0.00,,---,0.10,VWS V14.01,2013-09-21 06:41:00,
2013-09-20 23:46:00,59.4,55.5,29.64,SSE,149,0.0,6.0,87,0.00,,---,0.10,VWS V14.01,2013-09-21 06:46:00,
2013-09-20 23:51:00,59.4,55.5,29.65,SSW,199,2.0,6.0,87,0.00,,---,0.10,VWS V14.01,2013-09-21 06:51:00,
2013-09-20 23:56:00,59.4,55.5,29.65,SE,135,2.0,5.0,87,0.00,,---,0.10,VWS V14.01,2013-09-21 06:56:00,